Location: Pianadetto
(44.4000°N, 10.1000°E)
Time: 12:14:07
(UTC+00:00)

SAR-Lupe-2 - Visible Passes

Search period start: 26 September 2022 00:00
Search period end: 06 October 2022 00:00
Orbit: 481 x 482 km, 98.1° (Epoch: 05 September)

Date Brightness Start Highest point End Pass type
(mag) Time Alt. Az. Time Alt. Az. Time Alt. Az.
26 Sep 6.6 02:10:15 10° NNE 02:10:42 13° NNE 02:10:42 13° NNE visible
27 Sep 6.1 03:19:03 10° NNW 03:19:18 11° NNW 03:19:18 11° NNW visible
28 Sep 6.2 02:53:06 10° N 02:53:36 13° N 02:53:36 13° N visible
29 Sep 6.5 02:27:33 10° N 02:27:54 12° N 02:27:54 12° N visible
01 Oct 6.3 03:10:42 10° NNW 03:10:46 10° NNW 03:10:46 10° NNW visible
02 Oct 6.5 02:44:55 10° N 02:45:03 11° N 02:45:03 11° N visible
